Flight Track Log - Related Links

Times and Time Zones

All times are in EDT time to prevent confusion due to time zone crossing. See the SKW4841 flight status page for this flight to view local times or setup timezone preferences in your user account.

Time Position Orientation Groundspeed Altitude Reporting Facility
EDT Latitude Longitude Course Direction KTS MPH feet Rate Location/Type
Tue 07:56:06 AM 36.1167 -86.6833 North 147 169 1,300  Level Nashville TRACON
Tue 07:56:54 AM 36.1000 -86.7167 238° Southwest 146 168 2,800 1,722 Climbing Nashville TRACON
Tue 07:57:54 AM 36.1500 -86.7500 332° Northwest 279 321 4,400 2,158 Climbing Nashville TRACON
Tue 07:58:48 AM 36.2167 -86.7333 11° North 320 368 6,900 2,737 Climbing Nashville TRACON
Tue 07:59:00 AM 36.4983 -86.7150 356° North  Level FlightAware Approximate
Tue 07:59:48 AM 36.3000 -86.7333 360° North 303 349 9,600  Level Nashville TRACON
Tue 08:00:00 AM 36.5930 -86.7333 North  Level FlightAware Approximate
Tue 08:00:08 AM 36.3308 -86.7375 354° North 307 353 10,400  Level Memphis Center
Tue 08:01:00 AM 36.6892 -86.7333 North  Level FlightAware Approximate
Tue 08:01:08 AM 36.4206 -86.7386 359° North 334 384 12,900  Level Memphis Center
Tue 08:02:08 AM 36.5100 -86.7372 North 329 379 15,100 2,100 Climbing Memphis Center
Tue 08:03:08 AM 36.6017 -86.7331 North 322 371 17,100 1,650 Climbing Memphis Center
Tue 08:04:08 AM 36.6831 -86.7397 356° North 327 376 18,400 1,500 Climbing Memphis Center
Tue 08:05:08 AM 36.7767 -86.7331 North 327 376 20,100 1,289 Climbing Memphis Center
Tue 08:06:09 AM 36.8608 -86.6825 26° Northeast 327 376 21,000 450 Climbing Memphis Center
Tue 08:07:08 AM 36.9489 -86.6319 25° Northeast 342 394 21,000  Level Memphis Center
Tue 08:08:10 AM 37.0372 -86.5842 23° Northeast 346 398 21,000  Level Indianapolis Center
Tue 08:09:11 AM 37.1319 -86.5561 13° North 345 397 21,000  Level Indianapolis Center
Tue 08:10:13 AM 37.2417 -86.5197 15° North 346 398 21,000  Level Indianapolis Center
Tue 08:11:15 AM 37.3364 -86.4872 15° North 349 402 21,000  Level Indianapolis Center
Tue 08:12:17 AM 37.4242 -86.4289 28° Northeast 353 406 21,000  Level Indianapolis Center
Tue 08:13:19 AM 37.5125 -86.3708 28° Northeast 354 407 21,000  Level Indianapolis Center
Tue 08:14:20 AM 37.6019 -86.3114 28° Northeast 358 412 21,000  Level Indianapolis Center
Tue 08:15:22 AM 37.6892 -86.2519 28° Northeast 353 406 21,000  Level Indianapolis Center
Tue 08:16:24 AM 37.7842 -86.1886 28° Northeast 357 411 21,000  Level Indianapolis Center
Tue 08:17:26 AM 37.8744 -86.1272 28° Northeast 366 421 21,000  Level Indianapolis Center
Tue 08:18:28 AM 37.9622 -86.0672 28° Northeast 360 414 21,000  Level Indianapolis Center
Tue 08:19:29 AM 38.0503 -86.0078 28° Northeast 359 413 21,000  Level Indianapolis Center
Tue 08:20:31 AM 38.1400 -85.9456 29° Northeast 364 419 21,000 -242 Level Indianapolis Center
Tue 08:21:33 AM 38.2294 -85.8850 28° Northeast 365 420 20,500 -1,016 Descending Indianapolis Center
Tue 08:22:35 AM 38.3314 -85.8153 28° Northeast 351 404 18,900 -1,403 Descending Indianapolis Center
Tue 08:23:37 AM 38.4131 -85.7575 29° Northeast 340 391 17,600 -1,500 Descending Indianapolis Center
Tue 08:24:39 AM 38.4942 -85.7025 28° Northeast 332 382 15,800 -1,756 Descending Indianapolis Center
Tue 08:25:40 AM 38.5717 -85.6492 28° Northeast 323 372 14,000 -1,707 Descending Indianapolis Center
Tue 08:26:42 AM 38.6236 -85.5606 53° Northeast 320 368 12,300 -1,452 Descending Indianapolis Center
Tue 08:27:44 AM 38.6678 -85.4669 59° Northeast 312 359 11,000 -629 Descending Indianapolis Center
Tue 08:28:46 AM 38.7200 -85.3472 61° Northeast 320 368 11,000  Level Indianapolis Center
Tue 08:29:48 AM 38.7639 -85.2472 61° Northeast 322 371 11,000  Level Indianapolis Center
Tue 08:30:50 AM 38.8064 -85.1489 61° Northeast 318 366 11,000  Level Indianapolis Center
Tue 08:31:52 AM 38.8483 -85.0497 61° Northeast 317 365 11,000 -195 Level Indianapolis Center
Tue 08:32:53 AM 38.8894 -84.9522 62° Northeast 314 361 10,600 -835 Descending Indianapolis Center
Tue 08:33:47 AM 38.9333 -84.8500 61° Northeast 317 365 9,400 -850 Descending Cincinnati TRACON
Tue 08:34:53 AM 39.0000 -84.7833 38° Northeast 276 318 8,900 -955 Descending Cincinnati TRACON
Tue 08:35:59 AM 39.0833 -84.7833 360° North 253 291 7,300 -1,571 Descending Cincinnati TRACON
Tue 08:36:59 AM 39.1500 -84.7833 360° North 260 299 5,600 -1,600 Descending Cincinnati TRACON
Tue 08:37:59 AM 39.2000 -84.7333 38° Northeast 266 306 4,100 -1,500 Descending Cincinnati TRACON
Tue 08:38:59 AM 39.1833 -84.6667 108° East 201 231 2,600 -1,500 Descending Cincinnati TRACON

Login

Don't have an account? Register now (free) for customized features, flight alerts, and more!